Date,TemperatureHighF,TemperatureAvgF,TemperatureLowF,DewpointHighF,DewpointAvgF,DewpointLowF,HumidityHigh,HumidityAvg,HumidityLow,PressureMaxIn,PressureMinIn,WindSpeedMaxMPH,WindSpeedAvgMPH,GustSpeedMaxMPH,PrecipitationSumIn
2013-1-1,51,48,43,45,33,17,86,60,31,29.12,28.88,2,0,2,0.67
2013-1-2,56,51,49,48,42,33,91,73,43,29.09,28.85,4,0,4,0.04
2013-1-3,51,45,36,42,37,27,86,74,52,29.26,29.03,5,1,5,0.00
2013-1-4,55,39,28,35,20,7,85,53,24,29.32,29.18,5,1,5,0.00
2013-1-5,51,37,24,28,17,12,67,46,26,29.35,29.20,3,0,3,0.04
2013-1-6,56,46,33,31,26,20,66,48,33,29.20,29.00,6,1,6,0.00
2013-1-7,57,39,27,33,19,11,77,49,25,29.35,29.15,6,1,6,0.00
2013-1-8,54,42,27,28,22,14,69,48,30,29.41,29.29,5,1,5,0.00
2013-1-9,67,56,48,46,35,26,72,46,32,29.41,29.29,3,0,3,0.00
2013-1-10,72,59,47,54,41,35,88,57,27,29.44,29.26,6,1,6,0.00
2013-1-11,58,56,53,56,52,49,92,87,74,29.26,29.09,5,0,5,0.18
2013-1-12,72,60,53,64,53,48,98,81,45,29.15,29.03,4,0,4,0.00
2013-1-13,74,62,53,64,52,47,98,75,41,29.12,29.00,4,0,4,0.00
2013-1-14,69,63,58,66,60,54,96,89,75,29.09,29.00,3,0,3,0.24
2013-1-15,63,57,48,62,55,44,98,90,83,29.09,28.97,6,1,6,0.14
2013-1-16,54,50,46,51,48,43,96,92,85,29.00,28.91,5,0,5,0.34
2013-1-17,54,50,38,54,48,36,98,95,86,29.18,28.64,8,2,8,2.95
2013-1-18,55,40,30,44,25,12,98,65,23,29.47,29.18,6,0,6,0.00
2013-1-19,55,39,26,36,20,11,82,51,25,29.44,29.12,4,1,4,0.00
2013-1-20,65,47,32,28,22,15,67,40,21,29.15,28.97,5,1,5,0.00
2013-1-21,64,43,28,34,17,2,74,40,18,29.06,28.91,8,2,8,0.00
2013-1-22,49,35,27,8,1,-5,31,24,19,29.20,29.00,5,1,7,0.00
2013-1-23,54,40,25,17,9,0,40,27,22,29.29,29.03,6,1,6,0.00
2013-1-24,61,46,30,26,14,-6,51,29,16,29.38,28.97,12,3,12,0.00
2013-1-25,34,29,27,18,3,-8,52,33,20,29.44,29.03,4,1,4,0.00
2013-1-26,57,39,27,28,19,13,72,48,25,29.26,29.00,4,0,4,0.00
2013-1-27,49,39,30,24,19,14,68,46,28,29.47,29.26,7,1,7,0.00
2013-1-28,54,45,40,35,25,17,77,46,36,29.41,29.20,2,0,2,0.00
2013-1-29,71,54,37,52,40,31,84,62,34,29.20,28.97,4,0,4,0.00
2013-1-30,70,62,48,60,50,40,90,66,47,29.00,28.44,7,2,7,1.59
2013-1-31,52,43,36,40,14,6,74,33,19,29.06,28.58,11,3,11,0.00
2013-2-1,48,41,21,14,7,-6,44,25,19,29.29,28.94,10,3,10,0.00
2013-2-2,52,35,21,30,10,-2,68,38,19,29.32,29.03,5,1,5,0.09
2013-2-3,56,43,34,30,20,9,75,44,20,29.03,28.85,13,2,13,0.00
2013-2-4,52,38,26,18,14,10,58,39,26,29.09,28.94,4,0,4,0.00
2013-2-5,65,46,29,35,25,15,70,47,25,28.97,28.88,5,1,5,0.00
2013-2-6,70,49,32,48,24,10,87,47,17,29.12,28.97,6,1,6,0.00
2013-2-7,50,45,38,40,26,15,87,54,27,29.15,28.91,7,3,7,0.43
2013-2-8,62,48,35,42,31,17,85,54,26,29.09,28.85,8,1,8,0.00
2013-2-9,65,43,27,31,18,8,76,42,17,29.26,29.06,5,1,5,0.00
2013-2-10,62,47,34,43,25,14,83,46,21,29.35,29.09,6,1,6,0.66
2013-2-11,56,52,48,54,48,42,92,87,80,29.09,28.97,5,0,5,0.19
2013-2-12,61,51,43,48,35,22,88,60,25,29.06,28.85,5,1,5,0.14
2013-2-13,53,46,37,44,37,27,87,72,47,28.85,28.64,7,1,7,0.10
2013-2-14,57,40,28,38,24,18,84,57,27,29.03,28.82,5,0,5,0.00
2013-2-15,67,46,28,41,22,15,82,46,18,29.03,28.88,5,1,5,0.00
2013-2-16,53,40,28,27,16,0,61,39,23,29.03,28.76,11,2,11,0.00
2013-2-17,50,36,25,10,2,-5,31,24,19,29.20,29.00,7,2,7,0.00
2013-2-18,61,41,22,19,9,-3,48,29,17,29.32,29.12,5,1,5,0.00
2013-2-19,56,44,38,36,20,5,67,40,22,29.15,28.88,6,1,6,0.00
2013-2-20,61,46,26,18,10,2,43,24,17,29.09,28.97,4,1,4,0.00
2013-2-21,55,52,50,15,10,10,24,19,18,29.15,29.00,5,0,5,0.00
2013-2-22,50,41,39,35,32,15,83,72,24,29.18,29.03,6,2,6,0.42
2013-2-23,47,43,40,40,37,35,87,80,71,29.09,28.76,4,1,4,0.38
2013-2-24,69,55,40,45,32,18,88,50,18,28.94,28.82,5,1,5,0.00
2013-2-25,50,43,37,30,17,13,75,37,27,29.06,28.91,11,4,11,0.00
2013-2-26,45,38,34,38,33,29,88,82,74,28.94,28.53,13,3,13,0.19
2013-2-27,62,49,39,35,22,16,78,37,24,28.82,28.64,6,2,6,0.00
2013-2-28,58,44,36,22,15,9,41,31,22,28.88,28.70,6,3,6,0.00
2013-3-1,36,36,36,9,9,9,33,33,33,28.91,28.76,6,1,6,0.00
2013-3-2,54,41,34,27,14,6,59,32,26,28.88,28.76,7,2,7,0.00
2013-3-3,54,38,22,15,7,-2,56,30,18,28.97,28.82,6,1,6,0.00
2013-3-4,60,39,20,15,9,0,53,31,17,29.09,28.97,5,1,5,0.00
2013-3-5,65,47,34,49,27,11,83,48,26,29.03,28.58,9,1,9,0.23
2013-3-6,54,41,30,16,11,7,45,30,20,29.06,28.70,10,4,10,0.00
2013-3-7,62,43,24,24,16,11,64,37,19,29.20,29.06,6,1,6,0.00
2013-3-8,40,36,35,12,10,10,34,34,31,29.26,29.12,5,1,5,0.00
2013-3-9,68,48,31,22,15,1,53,28,17,29.29,29.12,5,1,5,0.00
2013-3-10,74,57,40,29,20,11,51,25,16,29.24,29.06,7,1,7,0.00
2013-3-11,69,59,48,56,26,-100,99,36,18,29.92,28.97,4,-21,4,0.70
2013-3-12,69,59,50,56,48,28,99,74,33,30.03,29.81,5,1,0,0.14
2013-3-13,59,48,32,36,24,19,98,43,23,30.17,30.03,9,4,0,0.00
2013-3-14,56,40,25,24,20,17,90,49,25,30.26,30.05,6,1,0,0.00
2013-3-15,73,52,28,42,33,19,88,54,29,30.09,29.80,5,1,0,0.00
2013-3-16,80,63,50,48,43,38,71,51,30,29.83,29.68,6,1,0,0.00
2013-3-17,77,64,52,52,47,39,74,56,39,29.90,29.78,4,1,0,0.00
2013-3-18,59,45,43,50,42,40,99,89,64,30.00,29.77,8,2,0,0.50
2013-3-19,70,54,43,49,34,15,99,58,17,29.98,29.79,9,2,0,0.00
2013-3-20,62,47,35,32,23,17,80,42,18,30.05,29.75,6,1,0,0.00
2013-3-21,55,42,32,29,13,3,56,33,18,29.90,29.76,8,3,0,0.00
2013-3-22,51,39,27,30,23,17,86,55,31,30.02,29.90,3,0,0,0.00
2013-3-23,52,45,39,49,42,29,99,88,68,29.97,29.80,4,0,0,0.29
2013-3-24,48,45,43,46,44,42,99,94,82,29.83,29.50,7,2,0,1.12
2013-3-25,47,40,34,42,27,21,99,59,40,29.96,29.53,13,4,0,0.01
2013-3-26,50,39,29,25,23,21,79,54,33,30.18,29.93,7,2,0,0.00
2013-3-27,59,41,23,28,24,20,98,57,24,30.27,30.11,5,1,0,0.00
2013-3-28,65,45,25,31,23,12,98,51,14,30.29,30.10,4,1,0,0.00
2013-3-29,61,45,27,39,29,23,96,57,24,30.29,30.13,5,1,0,0.00
2013-3-30,72,56,45,49,42,39,84,60,33,30.14,29.93,5,1,0,0.00
2013-3-31,71,59,52,60,55,51,99,88,54,29.96,29.75,4,1,0,0.60
2013-4-1,77,63,54,57,47,35,99,63,26,29.90,29.75,7,2,0,0.02
2013-4-2,73,57,39,39,34,18,96,47,19,30.07,29.89,4,1,0,0.00
2013-4-3,63,55,50,36,26,18,54,34,24,30.17,30.01,9,2,0,0.00
2013-4-4,52,44,38,39,35,27,99,74,43,30.13,29.89,7,2,0,0.68
2013-4-5,67,50,35,46,42,35,99,76,42,29.97,29.84,6,1,0,0.00
2013-4-6,75,54,34,43,38,34,99,63,23,30.12,29.97,5,1,0,0.00
2013-4-7,75,58,40,50,45,39,98,67,38,30.15,29.98,4,1,0,0.00
2013-4-8,83,63,49,58,52,48,99,72,36,30.07,29.94,6,1,0,0.00
2013-4-9,84,66,49,60,55,49,99,73,40,30.09,29.98,4,0,0,0.00
2013-4-10,87,69,54,63,58,53,99,72,40,30.01,29.81,5,0,0,0.00
2013-4-11,83,69,56,68,61,55,99,79,50,29.85,29.58,4,1,0,0.07
2013-4-12,80,68,60,68,56,40,99,71,35,29.72,29.54,5,2,0,1.51
2013-4-13,82,61,42,48,42,38,99,57,23,29.91,29.74,4,0,0,0.00
2013-4-14,72,59,45,57,50,44,96,75,44,29.99,29.86,3,0,0,0.02
2013-4-15,73,64,55,62,59,55,99,85,60,30.09,29.87,3,0,0,0.13
2013-4-16,83,68,57,63,60,57,99,78,48,30.20,30.06,4,0,0,0.00
2013-4-17,86,69,60,66,63,60,99,83,47,30.14,29.99,5,1,0,0.63
2013-4-18,82,69,59,66,62,59,99,81,50,30.03,29.84,3,0,0,0.00
2013-4-19,72,62,48,67,60,47,96,92,82,29.85,29.68,6,1,0,0.66
2013-4-20,68,52,38,47,39,31,99,69,29,30.16,29.84,4,1,0,0.01
2013-4-21,68,54,38,41,38,33,98,61,34,30.31,30.17,6,1,0,0.00
2013-4-22,67,55,45,42,39,37,86,58,36,30.31,30.11,7,2,0,0.00
2013-4-23,77,56,39,51,44,36,93,67,37,30.18,30.01,4,0,0,0.00
2013-4-24,76,61,48,63,55,48,99,84,54,30.06,29.94,6,0,0,0.08
2013-4-25,77,62,51,60,49,40,99,68,30,30.17,29.97,6,0,0,0.00
2013-4-26,76,58,40,50,41,34,96,60,25,30.32,30.17,4,0,0,0.00
2013-4-27,59,57,52,58,54,50,99,93,76,30.27,30.14,2,0,0,0.23
2013-4-28,55,54,52,54,53,52,99,99,99,30.17,29.96,4,0,0,1.99
2013-4-29,72,61,53,64,58,53,99,92,73,29.98,29.83,4,0,0,0.08
2013-4-30,78,64,54,64,58,54,99,83,57,30.05,29.88,4,1,0,0.00
2013-5-1,69,63,57,60,56,54,97,79,63,30.15,30.04,5,1,0,0.00
2013-5-2,63,60,58,59,57,56,93,89,84,30.16,30.10,5,1,0,0.00
2013-5-3,66,60,58,58,56,53,95,85,69,30.10,29.95,4,2,0,0.00
2013-5-4,60,55,52,54,50,44,99,85,59,29.96,29.81,8,2,0,0.95
2013-5-5,57,54,52,56,54,52,99,99,96,29.83,29.71,5,2,0,1.25
2013-5-6,64,56,50,54,51,47,99,85,59,29.83,29.70,3,0,0,0.00
2013-5-7,74,58,46,56,51,46,99,81,40,29.86,29.77,4,0,0,0.32
2013-5-8,76,62,50,63,56,49,99,85,50,29.93,29.83,4,0,0,0.00
2013-5-9,83,67,52,62,57,52,99,75,40,30.00,29.90,3,0,0,0.00
2013-5-10,82,68,55,66,61,55,99,80,53,29.98,29.83,4,0,0,0.01
2013-5-11,78,69,61,68,63,60,99,84,62,29.87,29.72,2,0,0,0.12
2013-5-12,76,63,53,62,51,35,99,69,33,29.94,29.75,4,0,0,0.00
2013-5-13,72,57,41,46,38,30,96,55,24,30.10,29.93,4,0,0,0.00
2013-5-14,77,60,40,53,45,39,95,62,34,30.17,29.99,5,0,0,0.00
2013-5-15,90,73,59,65,58,52,86,63,40,30.01,29.84,5,0,0,0.00
2013-5-16,82,71,60,67,61,57,92,73,51,29.95,29.86,2,0,0,0.00
2013-5-17,86,71,57,66,62,56,98,75,46,30.00,29.91,2,0,0,0.00
2013-5-18,77,68,63,71,66,61,99,91,71,30.02,29.92,2,0,0,0.38
2013-5-19,75,69,65,69,66,64,99,90,79,30.00,29.89,0,0,0,0.11
2013-5-20,86,72,64,69,66,63,99,82,54,30.01,29.89,2,0,0,0.00
2013-5-21,90,76,65,71,66,63,96,75,47,29.93,29.79,5,0,0,0.00
2013-5-22,87,72,63,71,65,60,93,78,56,29.90,29.76,8,0,0,0.94
2013-5-23,83,71,63,69,62,54,93,76,47,29.86,29.73,4,0,0,0.50
2013-5-24,79,68,58,55,48,36,79,51,23,30.11,29.81,4,1,0,0.00
2013-5-25,79,64,48,53,45,36,84,53,30,30.24,30.06,2,0,0,0.00
2013-5-26,78,64,52,54,50,43,84,63,36,30.21,30.06,4,0,0,0.00
2013-5-27,86,69,54,62,56,50,88,66,40,30.16,30.01,2,0,0,0.00
2013-5-28,86,72,60,65,61,57,89,70,47,30.13,30.02,2,0,0,0.00
2013-5-29,86,72,60,65,61,56,88,69,45,30.15,30.04,3,0,0,0.00
2013-5-30,86,73,62,66,63,59,89,71,47,30.18,30.04,2,0,0,0.00
2013-5-31,87,75,65,68,65,61,88,71,51,30.13,29.99,4,0,0,0.00
2013-6-1,86,76,66,70,66,62,86,72,54,30.04,29.90,2,0,0,0.00
2013-6-2,78,71,66,71,66,63,95,86,74,29.96,29.79,5,0,0,5.17
2013-6-3,85,72,65,74,68,63,96,87,63,29.85,29.73,5,0,0,0.01
2013-6-4,86,75,66,71,67,63,93,78,57,29.95,29.83,3,0,0,0.00
2013-6-5,86,73,67,73,67,64,96,84,66,29.97,29.83,4,0,0,1.23
2013-6-6,75,69,65,72,67,63,95,93,89,29.90,29.68,1,0,0,2.31
2013-6-7,84,71,67,77,68,64,97,92,70,29.75,29.56,5,0,0,0.73
2013-6-8,84,73,67,74,69,66,96,87,67,29.98,29.73,3,0,0,0.00
2013-6-9,84,73,67,76,70,66,98,92,72,30.02,29.93,3,0,0,0.91
2013-6-10,75,71,68,74,70,67,99,99,96,29.95,29.81,3,0,0,0.30
2013-6-11,88,77,68,78,72,68,99,84,55,29.91,29.82,3,0,0,0.22
2013-6-12,94,78,66,80,73,66,99,84,62,29.92,29.82,0,0,0,0.00
2013-6-13,92,79,70,77,74,70,99,85,56,29.84,29.60,6,0,0,1.22
2013-6-14,86,73,63,70,64,57,99,76,42,29.93,29.70,5,0,0,0.01
2013-6-15,87,72,60,67,62,59,98,74,43,30.04,29.94,3,0,0,0.00
2013-6-16,88,74,63,72,67,62,99,80,51,30.07,29.92,2,0,0,0.00
2013-6-17,86,76,69,77,72,69,99,90,71,29.98,29.82,2,0,0,0.33
2013-6-18,86,75,70,76,72,70,99,92,70,29.87,29.68,3,0,0,0.14
2013-6-19,83,74,68,73,69,67,99,87,66,30.01,29.80,3,0,0,0.01
2013-6-20,85,74,65,70,67,64,99,82,57,30.13,30.00,4,1,0,0.00
2013-6-21,85,73,64,68,65,63,99,79,50,30.17,30.05,4,0,0,0.00
2013-6-22,87,74,62,68,65,62,99,76,46,30.13,29.99,2,0,0,0.00
2013-6-23,89,76,66,74,70,65,99,83,57,30.09,29.97,0,0,0,0.00
2013-6-24,90,79,70,75,72,70,99,82,58,30.12,29.99,3,0,0,0.00
2013-6-25,90,79,70,75,72,70,98,81,55,30.06,29.91,4,0,0,0.00
2013-6-26,88,78,71,77,73,70,98,85,63,29.96,29.82,2,0,0,0.00
2013-6-27,92,80,73,78,75,72,99,86,61,29.88,29.64,4,1,0,0.03
2013-6-28,95,80,71,78,73,70,98,81,53,29.71,29.50,5,0,0,0.01
2013-6-29,91,78,69,73,71,67,99,80,47,29.62,29.52,4,0,0,0.00
2013-6-30,88,75,70,75,71,68,98,87,56,29.73,29.60,2,0,0,0.00
2013-7-1,85,74,68,75,71,68,99,90,68,29.86,29.71,3,0,0,0.83
2013-7-2,83,75,68,76,72,68,99,92,74,30.03,29.85,3,0,0,0.01
2013-7-3,83,73,68,75,72,68,99,95,74,30.11,30.00,2,0,0,0.86
2013-7-4,81,72,68,78,71,67,99,99,90,30.11,30.01,4,0,0,2.41
2013-7-5,84,73,68,76,72,68,99,95,69,30.14,30.04,3,0,0,0.43
2013-7-6,86,75,70,77,73,70,99,94,71,30.11,29.98,4,0,0,0.36
2013-7-7,84,76,71,78,74,71,99,95,78,30.07,29.98,2,0,0,1.08
2013-7-8,88,76,71,79,74,71,99,92,68,30.09,29.97,3,0,0,1.57
2013-7-9,88,77,70,79,74,70,99,93,70,30.08,29.92,3,0,0,1.78
2013-7-10,86,75,69,79,73,69,99,95,71,30.01,29.83,2,0,0,1.38
2013-7-11,83,76,73,79,75,73,99,96,84,29.85,29.75,0,0,0,0.00
2013-7-12,88,74,66,78,72,66,99,93,67,29.87,29.74,3,0,0,1.67
2013-7-13,79,72,67,74,70,66,99,94,82,29.98,29.88,3,0,0,0.09
2013-7-14,81,75,72,76,73,72,99,95,77,30.14,29.96,6,0,0,0.44
2013-7-15,85,76,71,78,73,70,99,93,72,30.21,30.11,3,0,0,0.03
2013-7-16,91,79,70,78,73,70,99,84,56,30.21,30.10,3,0,0,0.00
2013-7-17,94,78,69,81,74,68,99,87,60,30.15,29.99,7,0,0,0.59
2013-7-18,89,78,69,78,73,68,99,88,66,30.11,29.96,2,0,0,0.00
2013-7-19,92,80,72,80,75,71,99,86,63,30.03,29.87,3,0,0,0.00
2013-7-20,87,77,74,78,75,72,99,92,70,29.96,29.83,4,0,0,0.35
2013-7-21,90,78,72,79,74,71,99,90,65,29.92,29.79,5,0,0,2.13
2013-7-22,86,77,72,78,74,71,99,91,72,29.91,29.76,4,0,0,0.39
2013-7-23,89,77,70,78,73,70,99,88,66,29.80,29.69,3,0,0,0.00
2013-7-24,90,79,71,78,74,70,99,86,63,29.74,29.66,3,0,0,0.00
2013-7-25,89,77,69,75,71,66,99,83,59,29.92,29.73,3,0,0,0.00
2013-7-26,86,76,68,76,71,66,97,85,65,29.99,29.88,3,0,0,0.00
2013-7-27,82,76,71,77,74,71,99,93,83,29.92,29.78,1,0,0,1.42
2013-7-28,88,76,69,76,72,69,99,90,60,29.90,29.81,4,0,0,0.08
2013-7-29,86,75,69,75,71,69,99,88,60,30.05,29.89,2,0,0,0.00
2013-7-30,88,76,65,75,70,64,98,85,60,30.10,30.01,2,0,0,0.00
2013-7-31,81,76,72,77,73,71,98,90,76,30.06,29.86,0,0,0,0.00
2013-8-1,90,78,73,77,73,70,96,87,64,29.91,29.77,3,0,0,0.00
2013-8-2,89,78,70,75,72,69,99,83,60,29.93,29.82,3,0,0,0.00
2013-8-3,88,78,71,76,73,71,99,85,62,29.93,29.85,2,0,0,0.00
2013-8-4,92,80,72,75,71,63,97,78,50,29.93,29.82,2,0,0,0.00
2013-8-5,85,77,71,77,71,65,93,81,69,29.95,29.86,1,0,0,0.01
2013-8-6,86,76,71,79,74,69,99,92,76,29.96,29.85,3,0,0,3.22
2013-8-7,78,74,73,78,74,72,99,99,97,29.97,29.90,0,0,0,1.68
2013-8-8,84,76,73,79,74,72,99,95,79,29.98,29.89,2,0,0,0.02
2013-8-9,86,78,73,80,76,73,99,95,77,29.99,29.91,0,0,0,0.99
2013-8-10,91,79,73,81,75,72,99,90,67,30.03,29.93,6,0,0,0.00
2013-8-11,91,78,72,79,75,71,99,91,62,30.04,29.93,2,0,0,0.57
2013-8-12,92,79,73,81,76,72,99,89,64,29.98,29.83,3,0,0,0.00
2013-8-13,86,78,74,79,75,73,99,92,70,29.85,29.69,3,0,0,0.16
2013-8-14,82,75,71,74,71,65,99,89,69,29.94,29.74,3,0,0,0.00
2013-8-15,75,69,66,67,63,60,93,80,62,30.02,29.93,5,0,0,0.00
2013-8-16,70,66,62,68,64,61,99,94,83,30.04,29.96,4,0,0,0.58
2013-8-17,69,65,62,66,64,61,99,95,85,30.08,30.01,4,0,0,0.19
2013-8-18,77,70,66,73,69,65,99,97,85,30.12,30.03,3,0,0,0.24
2013-8-19,77,72,69,73,71,69,99,96,84,30.09,29.97,4,0,0,0.43
2013-8-20,81,74,69,75,72,69,99,95,78,30.09,30.00,2,0,0,0.00
2013-8-21,80,74,70,78,74,70,99,98,84,30.13,30.02,1,0,0,0.01
2013-8-22,88,75,70,78,73,70,99,94,68,30.07,29.94,2,0,0,1.37
2013-8-23,88,76,70,77,73,69,99,90,63,29.98,29.84,4,0,0,0.00
2013-8-24,82,73,67,71,68,64,99,84,64,30.19,29.96,5,1,0,0.01
2013-8-25,82,70,60,66,63,60,99,81,51,30.29,30.15,3,0,0,0.00
2013-8-26,83,71,61,69,65,60,99,83,53,30.23,30.03,3,0,0,0.00
2013-8-27,88,74,64,74,68,63,99,84,56,30.07,29.90,1,0,0,0.00
2013-8-28,91,77,68,76,71,67,99,84,55,29.95,29.84,0,0,0,0.00
2013-8-29,92,79,70,79,74,69,99,85,62,29.86,29.77,0,0,0,0.00
2013-8-30,85,77,74,77,74,72,99,90,75,29.95,29.83,2,0,0,1.21
2013-8-31,89,78,73,79,74,71,96,89,69,29.87,29.77,0,0,0,0.00
2013-9-1,90,78,72,79,74,71,97,89,67,29.83,29.71,0,0,0,0.00
2013-9-2,87,79,73,78,75,72,97,87,69,29.81,29.71,0,0,0,0.00
2013-9-3,90,78,69,77,73,66,98,86,61,29.87,29.74,0,0,0,0.23
2013-9-4,88,76,68,75,71,67,97,86,58,29.99,29.86,0,0,0,0.00
2013-9-5,89,77,69,75,72,68,96,85,58,30.02,29.94,0,0,0,0.00
2013-9-6,86,74,66,72,66,63,94,77,50,30.07,29.95,0,0,0,0.00
2013-9-7,86,73,65,70,66,63,94,81,54,30.03,29.90,0,0,0,0.00
2013-9-8,90,76,66,74,69,65,96,83,53,29.91,29.82,0,0,0,0.00
2013-9-9,74,71,69,71,69,67,95,93,92,29.96,29.90,0,0,0,0.00
2013-9-10,79,76,73,73,72,70,92,88,81,30.12,30.06,0,0,0,0.00
2013-9-11,92,74,68,73,67,-100,97,83,50,30.13,29.90,0,-15,0,0.00
2013-9-12,91,75,68,75,71,67,99,88,54,29.91,29.78,3,0,0,0.00
2013-9-13,87,74,65,72,66,57,99,78,46,29.90,29.76,3,0,0,0.00
2013-9-14,80,67,58,63,57,52,95,71,47,30.09,29.91,5,1,0,0.00
2013-9-15,82,70,60,70,64,59,99,84,62,30.17,30.04,3,0,0,0.00
2013-9-16,88,73,64,71,67,64,99,82,46,30.07,29.96,3,0,0,0.00
2013-9-17,75,70,66,64,61,57,84,72,60,30.19,30.05,5,1,0,0.00
2013-9-18,76,68,63,64,60,56,98,75,54,30.15,30.01,5,1,0,0.00
2013-9-19,83,69,59,67,63,59,99,83,54,30.04,29.92,3,0,0,0.00
2013-9-20,87,72,62,70,66,62,99,84,53,29.93,29.76,3,0,0,0.00
2013-9-21,75,69,65,72,68,64,99,97,86,29.79,29.51,4,0,0,1.47
2013-9-22,79,68,63,66,64,62,99,87,58,29.79,29.61,3,0,0,0.00
2013-9-23,78,67,60,64,61,58,99,83,55,29.95,29.80,4,0,0,0.00
2013-9-24,77,66,58,66,62,57,99,87,63,29.98,29.83,4,0,0,0.00
2013-9-25,67,64,62,65,63,61,99,98,94,29.84,29.76,2,0,0,0.77
2013-9-26,76,66,59,66,62,59,99,90,66,29.94,29.79,4,0,0,0.00
2013-9-27,78,64,54,62,58,53,99,84,55,30.08,29.95,4,1,0,0.00
2013-9-28,74,63,55,60,57,55,99,83,55,30.17,30.04,4,0,0,0.00
2013-9-29,74,62,53,62,58,53,99,86,58,30.08,29.93,3,0,0,0.00
2013-9-30,76,65,56,63,59,56,99,85,56,30.01,29.89,4,0,0,0.00
2013-10-1,82,65,54,64,59,54,99,84,48,30.06,29.95,2,0,0,0.00
2013-10-2,82,67,56,67,62,56,99,87,56,30.06,29.96,2,0,0,0.00
2013-10-3,84,68,58,68,63,58,99,86,52,30.04,29.95,2,0,0,0.00
2013-10-4,87,69,58,68,64,58,99,85,47,30.05,29.96,3,0,0,0.00
2013-10-5,87,70,59,69,65,58,99,85,53,30.02,29.90,2,0,0,0.00
2013-10-6,82,70,61,70,66,60,99,87,60,29.93,29.74,2,0,0,0.00
2013-10-7,76,69,60,73,67,54,99,92,78,29.87,29.69,4,0,0,0.85
2013-10-8,72,63,58,58,54,48,87,71,52,30.06,29.85,5,1,0,0.00
2013-10-9,74,62,53,56,49,44,96,64,37,30.11,29.98,5,1,0,0.00
2013-10-10,79,61,48,61,54,47,99,83,46,30.02,29.87,2,0,0,0.00
2013-10-11,82,65,53,63,58,53,99,83,47,29.92,29.80,3,0,0,0.00
2013-10-12,83,66,53,65,59,53,99,82,45,29.96,29.84,3,0,0,0.00
2013-10-13,77,69,64,66,64,63,98,85,63,30.08,29.96,4,0,0,0.00
2013-10-14,71,66,64,65,63,61,99,89,75,30.10,30.01,4,1,0,0.00
2013-10-15,68,63,57,62,60,57,99,88,74,30.06,29.94,3,0,0,0.00
2013-10-16,74,63,53,62,58,53,99,87,54,29.95,29.84,2,0,0,0.00
2013-10-17,68,64,61,67,64,60,99,99,96,29.85,29.75,0,0,0,0.20
2013-10-18,72,64,57,64,61,56,99,91,63,29.90,29.77,2,0,0,0.00
2013-10-19,66,60,54,60,58,54,99,94,79,29.83,29.75,2,0,0,0.00
2013-10-20,69,54,44,53,49,44,99,85,47,29.96,29.82,4,0,0,0.00
2013-10-21,69,56,44,59,52,44,99,89,63,30.04,29.90,3,0,0,0.00
2013-10-22,68,60,56,61,58,56,99,91,68,29.92,29.70,2,0,0,0.00
2013-10-23,66,54,41,56,44,32,99,73,38,29.94,29.65,5,1,0,0.00
2013-10-24,63,48,34,47,40,34,99,77,40,30.08,29.94,3,0,0,0.00
2013-10-25,55,45,35,43,35,26,99,72,34,30.26,30.06,4,1,0,0.00
2013-10-26,59,44,30,41,35,30,99,73,44,30.26,30.01,4,0,0,0.00
2013-10-27,70,56,41,55,47,38,96,74,51,30.04,29.95,3,0,0,0.00
2013-10-28,66,59,54,61,56,53,99,91,72,30.16,30.01,0,0,0,0.00
2013-10-29,74,57,46,60,53,46,99,87,53,30.24,30.13,2,0,0,0.00
2013-10-30,77,62,53,61,57,53,99,85,56,30.20,30.04,3,0,0,0.00
2013-10-31,74,63,54,65,59,53,99,88,68,30.07,29.78,3,0,0,0.00
2013-11-1,68,64,58,66,63,57,99,94,79,29.77,29.56,3,0,0,0.19
2013-11-2,71,55,47,57,48,41,99,80,42,29.89,29.63,4,0,0,0.00
2013-11-3,65,48,37,44,41,37,99,79,39,30.23,29.89,3,0,0,0.00
2013-11-4,60,48,40,42,39,34,99,75,42,30.39,30.23,4,0,0,0.00
2013-11-5,61,49,38,49,41,33,95,76,50,30.42,30.28,5,1,0,0.00
2013-11-6,70,59,51,57,53,49,99,83,58,30.28,30.01,3,0,0,0.00
2013-11-7,73,57,41,63,48,28,99,77,21,30.04,29.84,5,1,0,0.02
2013-11-8,59,47,36,37,33,27,96,63,29,30.21,30.04,3,0,0,0.00
2013-11-9,60,45,32,43,36,30,94,74,36,30.26,30.11,3,0,0,0.00
2013-11-10,72,53,43,45,41,36,92,67,32,30.13,30.01,3,0,0,0.00
2013-11-11,62,46,35,39,35,28,99,71,30,30.24,30.06,6,0,0,0.00
2013-11-12,69,46,32,45,33,15,99,66,33,30.35,29.93,7,2,0,0.00
2013-11-13,52,35,22,24,18,9,91,56,19,30.44,30.33,3,0,0,0.00
2013-11-14,59,37,22,33,24,17,98,66,21,30.38,30.21,3,0,0,0.00
2013-11-15,61,46,30,48,38,26,99,75,38,30.23,30.06,2,0,0,0.10
2013-11-16,66,56,49,58,54,48,99,91,71,30.15,30.05,3,0,0,0.00
2013-11-17,65,60,56,62,59,55,99,96,83,30.08,29.80,2,0,0,0.28
2013-11-18,81,61,42,62,51,33,99,75,27,29.88,29.74,5,0,0,0.01
2013-11-19,62,45,33,40,32,24,99,67,28,30.12,29.87,5,1,0,0.00
2013-11-20,56,46,38,35,31,29,80,57,37,30.29,30.11,9,2,0,0.00
2013-11-21,54,49,47,49,42,34,99,76,57,30.34,30.25,5,2,0,0.00
2013-11-22,63,56,50,58,54,49,99,95,82,30.28,30.03,2,0,0,0.00
2013-11-23,64,56,38,58,52,34,99,86,59,30.08,29.94,3,0,0,0.00
2013-11-24,48,36,27,34,17,6,93,50,18,30.40,30.08,6,2,0,0.00
2013-11-25,46,35,23,20,14,8,79,47,23,30.42,30.18,4,1,0,0.00
2013-11-26,46,39,32,46,37,20,99,94,45,30.18,29.51,5,1,0,2.24
2013-11-27,51,41,26,47,35,22,99,83,47,30.11,29.40,9,2,0,0.49
2013-11-28,54,31,20,30,24,20,99,79,31,30.37,30.11,4,0,0,0.00
2013-11-29,62,37,23,33,27,23,99,74,24,30.45,30.32,4,0,0,0.00
2013-11-30,53,38,30,29,26,23,97,67,32,30.50,30.26,6,1,0,0.00
2013-12-1,59,44,32,44,36,28,99,75,45,30.25,29.90,3,0,0,0.00
2013-12-2,62,45,32,49,41,32,99,88,53,29.90,29.69,3,0,0,0.00
2013-12-3,58,53,48,56,52,47,99,98,87,29.83,29.74,2,0,0,0.39
2013-12-4,65,58,54,64,58,54,99,99,96,29.95,29.80,2,0,0,0.12
2013-12-5,68,64,60,68,64,60,99,99,99,29.99,29.89,3,0,0,0.15
2013-12-6,78,68,65,70,66,64,99,94,69,29.94,29.85,8,1,0,0.07
2013-12-7,64,58,50,64,55,45,99,89,69,30.24,29.88,5,1,0,0.22
2013-12-8,50,42,37,45,41,37,99,97,81,30.25,30.13,6,2,0,0.10
2013-12-9,46,42,37,46,42,37,99,99,99,30.16,29.92,3,0,0,0.78
2013-12-10,61,48,31,55,39,22,99,78,33,30.21,29.79,11,2,0,0.12
2013-12-11,59,37,25,35,29,25,99,80,31,30.34,30.19,3,0,0,0.00
2013-12-12,57,35,25,32,27,21,99,77,26,30.30,30.18,4,0,0,0.00
2013-12-13,62,38,23,35,28,22,99,73,26,30.26,30.11,3,0,0,0.00
2013-12-14,46,43,39,46,40,32,99,90,69,30.13,29.70,5,1,0,1.11
2013-12-15,60,45,31,47,39,31,99,82,41,30.01,29.64,6,1,0,0.02
2013-12-16,65,41,27,36,31,27,99,73,32,30.09,29.98,3,0,0,0.00
2013-12-17,66,49,36,39,35,28,92,62,35,30.06,29.87,9,1,0,0.00
2013-12-18,61,43,30,28,21,14,89,46,16,30.18,29.96,9,1,0,0.00
2013-12-19,66,41,26,35,29,24,99,69,20,30.24,30.09,3,0,0,0.00
2013-12-20,58,45,33,48,40,31,99,85,63,30.14,30.04,2,0,0,0.00
2013-12-21,68,56,45,62,54,44,99,93,79,30.04,29.88,3,0,0,0.00
2013-12-22,70,63,59,67,62,59,99,98,86,29.95,29.84,4,1,0,1.77
2013-12-23,60,55,45,59,54,44,99,97,84,30.05,29.88,2,0,0,0.90
2013-12-24,54,41,28,44,30,18,99,69,31,30.30,30.04,9,1,0,0.00
2013-12-25,46,32,24,27,19,13,81,59,27,30.42,30.25,4,1,0,0.00
2013-12-26,62,39,28,31,27,23,98,67,29,30.27,30.11,3,0,0,0.00
2013-12-27,56,36,26,30,27,21,99,75,29,30.36,30.22,3,0,0,0.00
2013-12-28,51,37,25,42,32,25,99,87,49,30.30,29.96,3,0,0,0.40
2013-12-29,63,47,40,53,45,40,99,93,67,29.93,29.69,7,1,0,0.99
2013-12-30,56,44,34,47,40,33,99,88,62,30.03,29.85,3,0,0,0.00
2013-12-31,56,43,33,40,35,26,99,76,33,30.25,30.02,3,0,0,0.00
2014-1-1,52,40,30,38,33,29,99,81,47,30.26,30.03,3,0,0,0.00
2014-1-2,47,42,30,47,40,15,99,92,54,30.03,29.56,12,1,0,0.24